FLOCK 4BE-25

Last updated on Mon Sep 16 2024 00:02:03 GMT+0000 (Coordinated Universal Time)

1 60487U 24149V 24258.90211094 .00016208 00000+0 78868-3 0 9998 2 60487 97.4437 334.0158 0003934 22.9463 337.1947 15.18462042 4416
UTC large
Height (km)
Speed (km/s)
/
Latitude / Longitude
Inclination (degrees)
Orbital Period (minutes)
Azimuth
Elevation
Range (km)
Doppler Factor

Next 0 passes for location: London (51.5072 / 0.1276)

Sorry there are no passes over London.